RH
77 77 77 77 79 78 78 79 80 79 79 78 78 78 79 81 84 58 31 23 30 71 74 48 44 34 34 39 35 35 54 54 45 34 29 20 23 14 13 15 14 14 24 24 26
80 79 78 80 82 82 79 78 78 78 79 78 78 79 80 84 81 52 32 51 55 71 37 37 38 39 42 38 38 44 58 44 33 29 28 22 23 16 14 15 16 19 27 29 26
78 78 79 81 80 83 83 81 78 77 79 77 78 80 82 84 57 29 52 51 56 66 19 26 31 34 43 38 37 40 41 32 31 25 22 21 20 15 14 15 14 18 27 28 31
77 75 75 76 79 83 84 80 78 77 76 76 78 80 83 86 16 15 63 75 67 45 24 19 22 39 46 41 30 44 32 30 28 23 21 20 17 17 14 14 13 16 24 29 31
76 77 76 76 76 79 82 81 80 79 80 80 80 80 86 69 27 10 60 60 54 35 29 21 24 23 34 40 37 40 32 27 24 22 20 18 19 16 16 15 15 17 23 27 29
73 71 74 77 77 77 83 86 88 87 84 82 80 79 92 59 17 14 13 16 24 33 26 21 19 18 24 24 32 32 31 28 25 24 21 21 20 19 16 16 16 17 24 24 28
79 77 72 72 76 78 81 84 87 90 84 80 80 70 88 51 17 17 20 19 23 22 20 20 16 20 21 22 18 22 29 27 25 21 19 18 21 20 18 17 18 17 19 22 24
83 84 80 76 71 75 78 83 86 82 78 78 77 74 87 39 31 21 13 10 14 15 18 14 16 20 23 21 19 24 26 30 22 19 17 22 25 18 18 19 21 19 17 20 25
83 86 84 80 78 71 77 86 82 77 76 74 78 86 76 35 34 18 18 14 10 11 15 14 17 19 22 22 26 28 30 27 25 21 20 22 23 18 17 19 20 21 24 23 22
82 84 86 85 81 79 81 85 80 74 71 63 65 89 53 21 14 16 13 17 14 16 17 22 28 24 26 31 31 26 30 29 26 20 22 23 23 18 17 19 19 22 25 28 28
78 82 86 87 84 85 90 90 82 89 97 82 64 44 20 18 17 15 16 17 20 20 22 25 30 28 22 20 20 26 28 30 22 18 25 25 23 20 21 24 20 23 25 30 34
81 82 82 86 86 87 94 97 63 64 82 54 59 50 27 22 24 19 17 23 23 28 18 27 23 17 17 20 23 24 28 26 22 18 23 23 24 20 23 26 24 24 27 32 50
88 89 86 86 89 92 94 70 54 51 79 58 48 48 45 31 33 25 18 22 18 23 19 22 22 16 16 20 25 24 25 28 26 22 21 26 28 29 25 29 26 25 30 43 46
89 90 89 90 90 84 61 52 51 50 97 53 44 36 36 35 39 22 17 18 20 18 18 18 15 18 18 17 21 27 20 21 26 31 38 26 41 32 24 23 22 22 28 43 41
90 87 88 88 96 96 50 46 46 61 57 16 18 22 27 38 26 25 17 18 22 18 18 20 15 17 17 16 17 24 20 23 25 30 32 26 34 28 28 24 22 24 34 46 38
90 86 88 86 86 87 71 60 67 75 80 25 17 25 34 34 24 21 21 16 15 17 16 16 14 13 14 14 16 18 24 25 26 31 40 28 33 28 30 24 24 28 36 41 50
89 87 91 71 94 80 72 71 88 92 33 26 27 23 22 38 32 25 25 22 24 24 24 18 17 14 12 16 15 22 30 44 62 52 48 31 38 35 30 28 21 20 34 47 52
90 92 93 80 93 81 83 94 99 46 41 27 31 26 26 28 33 28 27 22 20 16 21 24 25 17 13 14 15 15 20 38 51 54 40 28 33 24 23 21 22 25 39 50 59
93 99 98 92 82 87 90 98 73 47 33 44 38 35 33 32 32 34 31 21 19 17 23 24 24 16 12 11 13 16 23 16 34 41 38 36 30 29 24 27 38 46 46 54 58
96 99 96 76 82 95 99 88 71 46 43 42 53 44 54 44 55 52 36 25 19 16 17 25 32 17 14 12 12 13 17 26 39 43 50 40 35 37 28 33 44 49 53 58 60
98 99 74 74 91 96 99 81 60 42 46 53 57 48 49 64 62 58 41 35 27 18 15 19 31 29 15 17 14 15 19 29 30 39 47 51 37 33 22 28 43 43 47 53 56
98 99 84 90 99 100 97 70 62 50 51 51 47 43 50 79 66 61 50 41 40 42 28 16 28 29 23 21 12 12 15 28 28 38 36 40 34 30 29 32 35 41 42 48 51
100 98 89 88 99 98 79 66 58 60 53 52 48 44 44 55 63 65 56 42 41 44 46 24 24 45 44 27 22 15 18 25 33 42 38 30 34 26 37 36 36 41 45 47 56
99 95 97 99 95 92 92 84 74 44 47 41 48 47 54 53 45 58 65 45 50 41 53 51 29 23 30 25 25 25 16 23 29 40 42 29 32 31 45 41 46 44 44 45 49
98 96 89 98 93 89 88 72 71 69 48 44 58 57 55 68 59 56 43 65 52 46 46 53 36 21 17 21 26 23 16 23 20 25 26 30 30 27 35 39 42 43 43 42 46
98 98 89 88 90 85 75 77 70 63 61 58 58 48 47 65 65 77 60 66 66 54 54 56 75 28 25 16 16 20 21 20 20 27 27 25 31 26 27 37 44 42 39 39 41
94 93 98 84 93 92 89 77 83 68 67 52 51 55 59 48 55 59 67 56 57 65 65 68 75 64 31 23 19 24 21 22 20 24 26 26 24 28 30 37 40 42 36 34 36
Wind_Speed
15 15 15 15 12 12 12 13 14 14 14 16 17 17 17 16 17 2 12 12 10 13 2 8 6 5 4 5 5 5 2 8 8 7 11 17 2 6 5 3 3 5 8 9 14
15 16 16 15 14 13 14 13 14 15 15 14 16 17 17 16 3 10 11 17 19 11 7 10 9 7 4 5 5 7 6 13 15 9 10 16 5 7 5 6 5 4 4 7 15
15 15 16 16 16 14 14 15 15 15 14 14 15 15 15 13 5 12 9 26 19 13 11 6 4 8 7 5 8 8 17 19 19 16 16 18 17 8 6 6 8 6 6 10 8
15 16 16 16 17 16 16 16 16 16 15 15 14 14 16 3 8 3 3 4 16 15 12 9 6 7 7 14 22 6 14 21 23 21 18 19 18 17 8 10 9 6 17 10 10
17 17 17 17 17 18 18 17 15 16 16 15 14 13 7 5 12 14 9 5 6 14 15 12 11 12 15 10 8 13 25 20 18 17 20 20 17 16 9 11 9 3 13 17 15
15 16 18 18 18 18 17 16 14 15 14 14 12 12 3 16 8 13 19 8 5 6 12 10 10 10 5 18 15 10 17 20 18 20 22 22 22 7 10 9 10 11 16 14 14
16 15 16 18 19 19 17 16 16 16 17 15 12 7 9 19 6 6 7 6 6 9 8 17 17 4 7 9 13 14 21 19 19 13 17 15 18 13 12 9 9 12 12 15 18
16 15 17 17 18 20 20 19 19 18 19 16 13 6 12 9 17 22 26 21 8 9 12 11 14 11 6 5 8 7 5 9 10 14 21 7 24 16 13 10 12 12 10 11 11
18 17 18 18 18 19 20 22 24 22 20 15 9 5 12 8 11 21 17 13 17 11 13 16 8 9 3 16 11 5 13 17 13 11 12 9 22 19 12 13 15 11 10 11 13
19 18 18 17 17 18 18 23 26 19 10 8 8 3 8 10 6 6 14 17 11 6 6 13 6 8 5 6 14 12 11 5 17 21 8 14 17 20 20 15 18 11 10 10 8
20 18 18 18 17 15 10 7 5 2 6 11 12 9 5 18 8 8 8 16 9 6 10 14 12 16 26 23 14 8 6 9 20 24 5 12 15 23 13 10 13 10 10 10 9
22 21 19 17 16 15 4 2 5 1 11 18 27 26 28 11 8 9 14 11 15 18 14 8 24 23 15 14 12 12 14 18 21 23 6 17 18 22 8 7 10 13 11 7 7
19 20 20 18 12 8 4 7 4 5 8 12 20 20 21 10 12 16 17 10 11 17 21 22 8 18 16 14 13 16 17 17 18 20 15 10 15 10 5 3 3 7 4 7 16
19 18 18 16 6 4 5 5 8 3 5 9 11 12 16 10 15 24 7 11 8 25 22 19 21 16 21 18 17 20 16 19 15 12 9 6 8 6 6 6 5 8 7 10 14
18 19 17 9 5 4 7 12 14 2 5 5 5 6 10 25 13 18 24 16 21 17 20 16 21 26 21 23 21 19 17 18 21 14 8 22 4 9 6 6 9 9 5 11 17
17 17 16 4 4 9 11 15 3 3 11 8 6 5 5 23 14 6 23 9 15 17 18 26 6 20 23 18 22 22 10 12 12 8 12 15 7 14 6 9 6 2 6 10 9
17 15 10 4 5 4 8 6 1 7 9 1 12 21 18 14 21 8 23 27 14 18 23 14 24 17 15 21 19 13 10 5 3 4 12 10 6 12 7 8 8 9 8 8 9
17 14 7 7 4 4 3 0 9 7 16 20 21 22 8 6 6 23 13 25 24 16 12 18 13 26 20 20 18 20 14 9 8 6 4 7 6 12 9 5 7 7 10 10 9
16 3 3 5 8 3 0 7 4 3 10 18 20 10 11 21 13 10 22 26 24 22 13 16 17 9 22 18 20 14 15 20 4 4 2 4 7 10 7 6 6 10 12 11 11
3 3 4 4 6 3 1 6 4 11 18 16 10 11 19 20 14 16 5 17 20 24 9 5 4 15 16 15 24 26 6 7 2 10 6 4 4 6 0 7 6 8 10 8 8
2 4 5 4 5 2 3 5 7 12 13 9 13 16 14 16 12 8 8 11 3 15 22 9 4 6 14 22 27 10 10 6 5 7 10 3 9 8 13 11 16 13 13 14 14
2 4 2 4 2 1 2 3 8 15 15 15 10 12 9 7 11 8 9 11 21 21 13 24 5 11 22 4 16 14 15 10 9 5 2 7 11 4 11 15 17 12 13 11 12
3 4 4 4 1 2 4 7 8 17 15 6 7 7 8 8 6 8 13 17 16 18 10 10 16 6 8 2 7 16 15 8 5 5 9 8 9 3 5 12 13 15 10 11 12
2 4 4 5 1 3 3 7 4 6 11 10 3 4 7 10 9 11 15 14 28 22 16 10 6 27 15 12 6 6 18 13 9 6 7 9 5 3 2 14 9 11 14 16 17
1 4 2 4 3 5 4 5 11 8 7 9 2 4 7 4 10 16 14 20 19 11 17 10 13 21 29 16 3 6 16 17 17 13 12 8 10 8 10 16 17 15 13 15 15
2 2 4 6 6 4 4 4 14 12 7 10 5 9 13 7 12 15 11 13 11 11 17 10 9 11 22 28 26 17 13 22 16 8 9 12 9 8 16 8 9 15 17 17 18
3 2 2 5 4 2 3 7 11 12 11 8 13 4 11 11 8 10 8 10 21 17 17 5 6 7 20 16 18 18 19 18 17 14 14 11 8 8 8 15 17 15 19 20 19
Wind_Direction
333 331 332 330 331 329 330 330 329 332 332 330 328 327 327 328 310 214 243 230 198 173 158 131 210 202 122 212 186 142 150 254 239 227 252 284 3 293 270 281 267 222 154 214 154
332 324 318 316 314 315 314 319 320 323 324 322 322 325 322 333 312 259 238 226 216 176 186 181 188 173 217 210 210 162 187 236 236 255 273 284 266 282 303 318 281 296 355 107 139
330 324 320 312 308 303 302 307 312 317 317 317 317 318 321 328 330 253 254 226 223 186 203 218 173 161 214 178 217 204 226 242 266 260 263 268 283 270 276 293 266 249 194 158 151
326 322 319 318 315 309 301 296 301 305 309 312 316 319 316 244 232 248 9 300 230 175 195 214 212 196 203 221 234 269 243 242 253 262 267 266 275 266 227 241 250 275 186 165 161
329 327 322 318 317 315 309 294 291 297 302 308 315 321 343 214 227 257 292 40 83 166 204 203 191 217 220 240 242 236 242 247 255 263 265 268 258 252 239 258 269 149 168 183 185
325 318 319 320 315 310 306 309 292 287 287 291 302 316 210 244 245 244 266 277 215 179 206 193 216 208 296 235 234 240 248 254 259 262 266 264 269 229 247 246 269 168 199 192 184
318 318 316 311 314 311 306 299 294 288 289 294 290 282 242 242 244 262 317 228 214 195 210 214 222 198 201 271 271 249 257 264 260 249 258 269 269 247 249 250 246 204 190 196 202
314 311 311 313 310 313 312 306 296 292 289 291 291 284 256 255 235 252 266 264 255 247 235 217 208 220 221 302 307 298 272 257 246 259 260 190 269 273 254 227 230 220 218 199 202
325 315 306 309 315 310 309 305 295 288 281 279 274 212 265 278 217 230 211 220 227 218 227 234 138 197 183 227 268 229 257 260 279 243 261 205 266 267 270 223 228 225 218 222 217
322 319 317 303 307 312 305 302 282 279 276 236 231 294 255 233 229 231 203 220 223 195 211 211 193 182 229 153 218 219 237 223 255 258 255 268 264 269 262 231 222 214 226 227 207
322 318 315 314 304 310 327 335 6 87 242 211 197 220 318 225 330 232 163 186 223 221 203 201 207 212 216 217 229 241 236 246 261 268 277 266 269 270 255 238 217 218 233 231 200
322 318 319 314 302 304 311 241 228 44 287 253 258 238 267 313 312 270 153 162 180 213 201 208 221 217 223 224 216 229 240 249 272 270 260 274 281 287 251 224 212 212 234 218 137
319 315 316 316 308 315 219 237 260 306 264 264 228 231 226 239 233 264 182 181 188 198 208 211 228 203 210 222 226 226 229 242 243 276 279 276 279 266 292 226 240 275 263 146 166
317 314 312 320 323 282 254 306 302 312 278 268 210 238 191 215 254 218 215 182 202 205 209 234 221 202 211 221 214 234 226 241 251 255 257 137 280 277 237 259 246 261 212 182 173
312 314 310 307 284 306 277 324 318 153 298 230 211 182 183 184 131 204 200 209 200 182 188 209 194 216 225 215 216 227 222 233 244 247 260 281 297 266 271 268 266 287 219 172 177
310 312 313 287 244 244 295 296 327 80 251 299 97 337 178 210 218 145 183 192 199 202 213 218 198 209 219 221 220 232 238 238 256 241 253 242 214 267 220 225 251 228 195 178 154
311 309 301 260 238 303 330 318 226 218 309 185 339 341 306 203 217 220 185 190 189 190 216 214 223 238 202 216 229 211 199 250 295 196 239 209 182 238 227 229 222 193 198 158 147
306 302 247 226 232 273 325 239 242 242 261 310 347 325 297 29 259 232 182 196 208 197 176 209 227 210 217 212 212 220 209 200 184 219 239 202 228 260 225 253 208 153 157 137 139
308 273 250 235 212 119 169 222 242 306 309 345 345 324 351 0 341 212 222 208 200 202 185 193 228 244 205 210 204 221 211 223 198 315 129 214 283 321 267 149 135 132 144 149 152
304 297 273 225 136 99 150 256 295 340 322 326 332 349 341 336 334 349 212 223 220 210 190 232 219 225 203 194 230 218 140 229 304 201 212 266 247 232 157 149 148 155 154 144 138
356 334 264 126 88 116 211 245 303 287 319 332 322 317 329 323 316 312 301 51 346 220 217 215 132 300 207 202 208 195 198 200 171 163 186 208 261 198 203 178 172 173 164 160 163
356 330 315 42 72 89 239 233 282 283 300 291 277 309 324 305 297 297 274 307 357 340 241 209 174 237 241 298 199 208 203 177 208 234 165 155 258 243 217 171 164 169 169 169 157
321 261 330 97 168 231 247 258 277 278 278 272 296 310 297 284 288 311 307 337 340 344 349 236 216 262 326 259 240 202 199 175 141 118 188 163 258 4 125 148 170 157 164 158 152
2 323 338 12 89 295 270 277 269 296 308 290 263 287 309 265 252 277 298 315 337 320 332 319 211 206 219 220 162 197 197 187 143 139 164 196 205 201 222 151 168 168 161 164 166
22 272 289 306 312 286 279 273 291 298 252 280 234 231 278 290 289 266 291 320 318 298 350 6 219 204 222 234 236 216 211 188 187 179 170 201 188 216 194 175 180 169 159 157 165
312 321 335 286 271 288 286 315 301 312 280 307 256 281 289 250 272 284 282 307 290 313 348 338 299 204 221 224 236 247 232 193 189 174 140 176 209 200 189 162 142 170 163 171 176
283 320 311 288 298 343 247 318 300 311 279 287 310 281 281 274 237 237 218 250 263 278 298 275 334 338 222 217 230 234 233 207 180 174 148 182 201 164 143 174 175 173 176 179 179